When you browse on this site, cookies collect data to enhance your experience and personalize the content and advertising you see.
Visit our Privacy Policy to learn more. By continuing to use the site, you agree to this use of cookies and data.
  • In Slovakia
  • List of Countries
  • For 7 days
  • Water Temperature
  • Weather Map
  • Weather Widgets
  • user-avatar
    Login

    Hourly Weather Tirana

    Today, 13 November, Wednesday

    Time Temperature Precipitation Wind Pressure Humidity
    00:00 +14°C° 1.4 mm 7 mps 745 mmHg 90%
    01:00 +13°C° 1.4 mm 6 mps 745 mmHg 89%
    02:00 +14°C° 0.1 mm 6 mps 744 mmHg 86%
    03:00 +14°C° 0.1 mm 7 mps 744 mmHg 83%
    04:00 +14°C° 0.1 mm 7 mps 744 mmHg 80%
    05:00 +13°C° 0.1 mm 8 mps 744 mmHg 78%
    06:00 +13°C° 0.1 mm 9 mps 744 mmHg 77%
    07:00 +13°C° 0.1 mm 10 mps 744 mmHg 76%
    08:00 +14°C° 0.2 mm 10 mps 744 mmHg 73%
    09:00 +16°C° 0.2 mm 10 mps 745 mmHg 70%
    10:00 +17°C° 0.2 mm 10 mps 745 mmHg 67%
    11:00 +18°C° 0.5 mm 10 mps 745 mmHg 65%
    12:00 +18°C° 0.5 mm 10 mps 746 mmHg 64%
    13:00 +19°C° 0.5 mm 11 mps 746 mmHg 62%
    14:00 +18°C° 0.4 mm 10 mps 746 mmHg 66%
    15:00 +17°C° 0.4 mm 10 mps 746 mmHg 70%
    16:00 +16°C° 0.4 mm 9 mps 746 mmHg 75%
    17:00 +16°C° 0.2 mm 8 mps 747 mmHg 77%
    18:00 +15°C° 0.2 mm 7 mps 747 mmHg 79%
    19:00 +14°C° 0.2 mm 7 mps 748 mmHg 80%
    20:00 +14°C° 0.7 mm 6 mps 748 mmHg 80%
    21:00 +14°C° 0.7 mm 6 mps 748 mmHg 80%
    22:00 +14°C° 0.7 mm 6 mps 749 mmHg 80%
    23:00 +14°C° 0.6 mm 5 mps 749 mmHg 80%

    Tomorrow, 14 November, Thursday

    Time Temperature Precipitation Wind Pressure Humidity
    00:00 +14°C° 0.6 mm 5 mps 749 mmHg 80%
    01:00 +14°C° 0.6 mm 5 mps 749 mmHg 80%
    02:00 +13°C° 0.5 mm 4 mps 749 mmHg 80%
    03:00 +13°C° 0.5 mm 4 mps 749 mmHg 79%
    04:00 +13°C° 0.5 mm 3 mps 749 mmHg 79%
    05:00 +13°C° 0.5 mm 3 mps 749 mmHg 79%
    06:00 +13°C° 0.5 mm 3 mps 749 mmHg 79%
    07:00 +13°C° 0.5 mm 3 mps 749 mmHg 79%
    08:00 +14°C° 0.2 mm 4 mps 749 mmHg 74%
    09:00 +17°C° 0.2 mm 4 mps 749 mmHg 70%
    10:00 +18°C° 0.2 mm 4 mps 749 mmHg 66%
    11:00 +18°C° 0.2 mm 4 mps 749 mmHg 65%
    12:00 +17°C° 0.2 mm 5 mps 749 mmHg 65%
    13:00 +19°C° 0.2 mm 5 mps 749 mmHg 65%
    14:00 +17°C° 0 mm 5 mps 749 mmHg 68%
    15:00 +16°C° 0 mm 5 mps 749 mmHg 71%
    16:00 +16°C° 0 mm 5 mps 749 mmHg 74%
    17:00 +15°C° 0.1 mm 5 mps 750 mmHg 75%
    18:00 +15°C° 0.1 mm 5 mps 750 mmHg 77%
    19:00 +14°C° 0.1 mm 5 mps 750 mmHg 78%
    20:00 +14°C° 0 mm 4 mps 751 mmHg 78%
    21:00 +13°C° 0 mm 4 mps 751 mmHg 79%
    22:00 +13°C° 0 mm 3 mps 751 mmHg 79%
    23:00 +13°C° 0 mm 3 mps 751 mmHg 78%

    Day after tomorrow, 15 November, Friday

    Time Temperature Precipitation Wind Pressure Humidity
    00:00 +13°C° 0 mm 3 mps 751 mmHg 77%
    01:00 +12°C° 0 mm 3 mps 751 mmHg 76%
    02:00 +12°C° 0 mm 3 mps 751 mmHg 75%
    03:00 +12°C° 0 mm 3 mps 751 mmHg 75%
    04:00 +12°C° 0 mm 3 mps 751 mmHg 74%
    05:00 +12°C° 0 mm 3 mps 752 mmHg 72%
    06:00 +12°C° 0 mm 3 mps 752 mmHg 71%
    07:00 +12°C° 0 mm 3 mps 752 mmHg 70%
    08:00 +14°C° 0 mm 3 mps 752 mmHg 64%
    09:00 +17°C° 0 mm 3 mps 752 mmHg 59%
    10:00 +19°C° 0 mm 3 mps 753 mmHg 53%
    11:00 +20°C° 0 mm 3 mps 753 mmHg 52%
    12:00 +20°C° 0 mm 4 mps 753 mmHg 51%
    13:00 +21°C° 0 mm 4 mps 753 mmHg 50%
    14:00 +20°C° 0 mm 5 mps 753 mmHg 57%
    15:00 +19°C° 0 mm 6 mps 753 mmHg 64%
    16:00 +17°C° 0 mm 6 mps 753 mmHg 71%
    17:00 +16°C° 0 mm 6 mps 753 mmHg 73%
    18:00 +15°C° 0 mm 6 mps 754 mmHg 75%
    19:00 +15°C° 0 mm 6 mps 754 mmHg 77%
    20:00 +14°C° 0 mm 6 mps 754 mmHg 78%
    21:00 +14°C° 0 mm 5 mps 755 mmHg 78%
    22:00 +14°C° 0 mm 5 mps 755 mmHg 79%
    23:00 +14°C° 0 mm 5 mps 755 mmHg 80%

    16 November, Saturday

    Time Temperature Precipitation Wind Pressure Humidity
    00:00 +14°C° 0 mm 4 mps 755 mmHg 80%
    01:00 +13°C° 0 mm 4 mps 755 mmHg 81%
    02:00 +13°C° 0 mm 4 mps 755 mmHg 80%
    03:00 +13°C° 0 mm 4 mps 755 mmHg 79%
    04:00 +13°C° 0 mm 4 mps 755 mmHg 78%
    05:00 +13°C° 0 mm 4 mps 755 mmHg 76%
    06:00 +13°C° 0 mm 4 mps 755 mmHg 74%
    07:00 +13°C° 0 mm 4 mps 755 mmHg 73%
    08:00 +16°C° 0 mm 3 mps 755 mmHg 68%
    09:00 +17°C° 0 mm 3 mps 755 mmHg 63%
    10:00 +19°C° 0 mm 3 mps 755 mmHg 58%
    11:00 +20°C° 0 mm 2 mps 755 mmHg 55%
    12:00 +20°C° 0 mm 2 mps 754 mmHg 52%
    13:00 +21°C° 0 mm 2 mps 754 mmHg 49%
    14:00 +20°C° 0 mm 2 mps 753 mmHg 55%
    15:00 +19°C° 0 mm 2 mps 753 mmHg 61%
    16:00 +18°C° 0 mm 2 mps 753 mmHg 67%
    17:00 +17°C° 0 mm 2 mps 753 mmHg 68%
    18:00 +16°C° 0 mm 3 mps 753 mmHg 68%
    19:00 +16°C° 0 mm 3 mps 753 mmHg 69%
    20:00 +14°C° 0 mm 3 mps 753 mmHg 69%
    21:00 +14°C° 0 mm 3 mps 753 mmHg 69%
    22:00 +13°C° 0 mm 3 mps 753 mmHg 68%
    23:00 +13°C° 0 mm 3 mps 753 mmHg 69%

    17 November, Sunday

    Time Temperature Precipitation Wind Pressure Humidity
    00:00 +13°C° 0 mm 3 mps 752 mmHg 69%
    01:00 +12°C° 0 mm 3 mps 752 mmHg 70%
    02:00 +12°C° 0 mm 3 mps 752 mmHg 70%
    03:00 +12°C° 0 mm 3 mps 752 mmHg 71%
    04:00 +12°C° 0 mm 4 mps 751 mmHg 72%
    05:00 +12°C° 0 mm 4 mps 751 mmHg 73%
    06:00 +12°C° 0 mm 4 mps 751 mmHg 74%
    07:00 +12°C° 0 mm 4 mps 751 mmHg 75%
    08:00 +14°C° 0 mm 4 mps 751 mmHg 69%
    09:00 +17°C° 0 mm 4 mps 751 mmHg 64%
    10:00 +17°C° 0 mm 5 mps 751 mmHg 58%
    11:00 +19°C° 0 mm 5 mps 751 mmHg 54%
    12:00 +20°C° 0 mm 5 mps 750 mmHg 50%
    13:00 +21°C° 0 mm 5 mps 750 mmHg 46%
    14:00 +20°C° 0 mm 5 mps 750 mmHg 50%
    15:00 +19°C° 0 mm 5 mps 750 mmHg 54%
    16:00 +17°C° 0 mm 5 mps 750 mmHg 58%
    17:00 +16°C° 0 mm 5 mps 750 mmHg 60%
    18:00 +15°C° 0 mm 5 mps 750 mmHg 62%
    19:00 +14°C° 0 mm 6 mps 750 mmHg 63%
    20:00 +14°C° 1.5 mm 6 mps 751 mmHg 66%
    21:00 +14°C° 1.5 mm 5 mps 751 mmHg 68%
    22:00 +14°C° 1.5 mm 5 mps 751 mmHg 71%
    23:00 +14°C° 4.5 mm 5 mps 752 mmHg 79%

    18 November, Monday

    Time Temperature Precipitation Wind Pressure Humidity
    00:00 +13°C° 4.5 mm 5 mps 752 mmHg 87%
    01:00 +13°C° 4.5 mm 5 mps 753 mmHg 95%
    02:00 +12°C° 0.3 mm 5 mps 753 mmHg 92%
    03:00 +12°C° 0.3 mm 4 mps 753 mmHg 90%
    04:00 +12°C° 0.3 mm 3 mps 753 mmHg 87%
    05:00 +12°C° 0 mm 3 mps 753 mmHg 86%
    06:00 +13°C° 0 mm 2 mps 753 mmHg 85%
    07:00 +13°C° 0 mm 2 mps 753 mmHg 83%
    08:00 +14°C° 0 mm 2 mps 753 mmHg 77%
    09:00 +16°C° 0 mm 1 mps 754 mmHg 70%
    10:00 +18°C° 0 mm 1 mps 754 mmHg 64%
    11:00 +19°C° 0 mm 1 mps 754 mmHg 62%
    12:00 +19°C° 0 mm 1 mps 753 mmHg 60%
    13:00 +20°C° 0 mm 1 mps 753 mmHg 58%
    14:00 +19°C° 0 mm 1 mps 753 mmHg 64%
    15:00 +18°C° 0 mm 1 mps 753 mmHg 69%
    16:00 +16°C° 0 mm 1 mps 753 mmHg 75%
    17:00 +15°C° 0 mm 1 mps 753 mmHg 77%
    18:00 +15°C° 0 mm 1 mps 753 mmHg 79%
    19:00 +14°C° 0 mm 1 mps 753 mmHg 82%
    20:00 +14°C° 0 mm 1 mps 753 mmHg 81%
    21:00 +14°C° 0 mm 1 mps 754 mmHg 81%
    22:00 +13°C° 0 mm 1 mps 754 mmHg 81%
    23:00 +13°C° 0 mm 1 mps 753 mmHg 80%
    Show more